Location: Unspecified
(0.0000°N, 0.0000°E)
Time: 23:37:24
(UTC+01:00)

Ariane H10 - Visible Passes

Search period start: 03 March 2015 00:00
Search period end: 13 March 2015 00:00
Orbit: 404 x 35111 km, 4.4° (Epoch: 02 March)

Date Brightness Start Highest point End Pass type
(mag) Time Alt. Az. Time Alt. Az. Time Alt. Az.
03 Mar 3.2 20:45:49 10° W 21:09:47 75° N 21:10:21 70° NE visible
05 Mar 4.8 04:39:45 62° WSW 04:42:43 77° S 14:16:55 10° E visible
06 Mar 3.9 21:33:22 10° W 21:44:10 47° WNW 21:44:10 47° WNW visible
08 Mar 5.2 05:13:39 40° WSW 05:21:14 79° S 14:54:59 10° E visible
09 Mar 6.7 01:57:38 13° E 01:57:38 13° E 02:00:00 10° E visible
09 Mar 6.7 01:57:36 13° E 01:57:36 13° E 02:00:00 10° E visible
09 Mar 5.2 22:14:34 10° W 22:17:50 20° W 22:17:50 20° W visible
11 Mar 5.7 05:47:25 25° W 06:01:20 82° S 15:32:01 10° E visible
12 Mar 6.2 02:31:19 27° E 02:31:19 27° E 02:46:31 10° E visible
12 Mar 6.2 02:31:20 27° E 02:31:20 27° E 11:44:28 10° E visible
